When you browse on this site, cookies collect data to enhance your experience and personalize the content and advertising you see.
Visit our Privacy Policy to learn more. By continuing to use the site, you agree to this use of cookies and data.
  • In Lithuania
  • List of Countries
  • For 7 days
  • Water Temperature
  • Satellite Maps
  • Weather Map
  • Weather Widgets
  • user-avatar
    Login

    Hourly Weather Nowolesie

    Today, 24 February, Sunday

    Time Temperature Precipitation Wind Pressure Humidity
    00:00 -1°C° 0 mm 1 mps 761 mmHg 37%
    01:00 -1°C° 0 mm 1 mps 761 mmHg 36%
    02:00 -1°C° 0 mm 1 mps 760 mmHg 35%
    03:00 -1°C° 0 mm 1 mps 760 mmHg 33%
    04:00 -1°C° 0 mm 0 mps 760 mmHg 32%
    05:00 -1°C° 0 mm 0 mps 760 mmHg 31%
    06:00 -1°C° 0 mm 0 mps 759 mmHg 30%
    07:00 -1°C° 0 mm 0 mps 759 mmHg 30%
    08:00 +1°C° 0 mm 1 mps 759 mmHg 29%
    09:00 +2°C° 0 mm 1 mps 759 mmHg 29%
    10:00 +3°C° 0 mm 1 mps 759 mmHg 28%
    11:00 +3°C° 0 mm 2 mps 759 mmHg 29%
    12:00 +4°C° 0 mm 2 mps 759 mmHg 29%
    13:00 +6°C° 0 mm 2 mps 759 mmHg 29%
    14:00 +6°C° 0 mm 2 mps 759 mmHg 34%
    15:00 +5°C° 0 mm 2 mps 758 mmHg 39%
    16:00 +6°C° 0 mm 1 mps 758 mmHg 44%
    17:00 +5°C° 0 mm 1 mps 758 mmHg 46%
    18:00 +4°C° 0 mm 1 mps 758 mmHg 49%
    19:00 +2°C° 0 mm 2 mps 758 mmHg 51%
    20:00 +1°C° 0 mm 2 mps 758 mmHg 53%
    21:00 +1°C° 0 mm 2 mps 758 mmHg 55%
    22:00 +1°C° 0 mm 2 mps 758 mmHg 56%
    23:00 +1°C° 0 mm 2 mps 758 mmHg 57%

    Tomorrow, 25 February, Monday

    Time Temperature Precipitation Wind Pressure Humidity
    00:00 +1°C° 0 mm 2 mps 759 mmHg 58%
    01:00 +1°C° 0 mm 2 mps 759 mmHg 59%
    02:00 +1°C° 0 mm 2 mps 758 mmHg 60%
    03:00 +1°C° 0 mm 2 mps 758 mmHg 60%
    04:00 +1°C° 0 mm 2 mps 758 mmHg 61%
    05:00 +1°C° 0 mm 2 mps 758 mmHg 62%
    06:00 +1°C° 0 mm 2 mps 758 mmHg 64%
    07:00 +1°C° 0 mm 2 mps 758 mmHg 66%
    08:00 +3°C° 0 mm 2 mps 758 mmHg 61%
    09:00 +3°C° 0 mm 3 mps 758 mmHg 57%
    10:00 +5°C° 0 mm 3 mps 758 mmHg 53%
    11:00 +6°C° 0 mm 4 mps 758 mmHg 51%
    12:00 +7°C° 0 mm 4 mps 758 mmHg 50%
    13:00 +8°C° 0 mm 4 mps 757 mmHg 48%
    14:00 +8°C° 0 mm 4 mps 757 mmHg 51%
    15:00 +9°C° 0 mm 3 mps 757 mmHg 54%
    16:00 +9°C° 0 mm 3 mps 756 mmHg 57%
    17:00 +7°C° 0 mm 3 mps 756 mmHg 62%
    18:00 +5°C° 0 mm 3 mps 756 mmHg 67%
    19:00 +3°C° 0 mm 3 mps 756 mmHg 72%
    20:00 +3°C° 0 mm 3 mps 756 mmHg 74%
    21:00 +2°C° 0 mm 3 mps 756 mmHg 77%
    22:00 +2°C° 0 mm 3 mps 756 mmHg 79%
    23:00 +2°C° 0 mm 3 mps 756 mmHg 81%

    Day after tomorrow, 26 February, Tuesday

    Time Temperature Precipitation Wind Pressure Humidity
    00:00 +2°C° 0 mm 3 mps 756 mmHg 83%
    01:00 +1°C° 0 mm 3 mps 756 mmHg 85%
    02:00 +1°C° 0 mm 3 mps 756 mmHg 84%
    03:00 +1°C° 0 mm 3 mps 755 mmHg 83%
    04:00 +1°C° 0 mm 3 mps 755 mmHg 83%
    05:00 +2°C° 0 mm 3 mps 755 mmHg 83%
    06:00 +2°C° 0 mm 3 mps 754 mmHg 84%
    07:00 +1°C° 0 mm 4 mps 754 mmHg 85%
    08:00 +4°C° 0 mm 4 mps 754 mmHg 79%
    09:00 +6°C° 0 mm 5 mps 754 mmHg 73%
    10:00 +8°C° 0 mm 6 mps 754 mmHg 67%
    11:00 +8°C° 0 mm 6 mps 754 mmHg 64%
    12:00 +9°C° 0 mm 7 mps 753 mmHg 62%
    13:00 +9°C° 0 mm 7 mps 753 mmHg 59%
    14:00 +9°C° 0 mm 7 mps 753 mmHg 60%
    15:00 +9°C° 0 mm 6 mps 753 mmHg 61%
    16:00 +9°C° 0 mm 6 mps 753 mmHg 63%
    17:00 +8°C° 0 mm 5 mps 753 mmHg 66%
    18:00 +7°C° 0 mm 5 mps 753 mmHg 69%
    19:00 +6°C° 0 mm 4 mps 753 mmHg 72%
    20:00 +6°C° 0 mm 4 mps 754 mmHg 76%
    21:00 +5°C° 0 mm 4 mps 754 mmHg 80%
    22:00 +4°C° 0 mm 3 mps 754 mmHg 84%
    23:00 +3°C° 0 mm 3 mps 754 mmHg 86%

    27 February, Wednesday

    Time Temperature Precipitation Wind Pressure Humidity
    00:00 +4°C° 0 mm 2 mps 754 mmHg 88%
    01:00 +3°C° 0 mm 2 mps 754 mmHg 91%
    02:00 +3°C° 0 mm 2 mps 754 mmHg 91%
    03:00 +3°C° 0 mm 2 mps 754 mmHg 91%
    04:00 +4°C° 0 mm 1 mps 754 mmHg 91%
    05:00 +3°C° 0 mm 2 mps 754 mmHg 90%
    06:00 +3°C° 0 mm 2 mps 753 mmHg 90%
    07:00 +2°C° 0 mm 2 mps 753 mmHg 89%
    08:00 +4°C° 0 mm 2 mps 753 mmHg 81%
    09:00 +6°C° 0 mm 2 mps 753 mmHg 73%
    10:00 +8°C° 0 mm 3 mps 753 mmHg 64%
    11:00 +10°C° 0 mm 3 mps 752 mmHg 59%
    12:00 +11°C° 0 mm 4 mps 752 mmHg 53%
    13:00 +13°C° 0 mm 4 mps 751 mmHg 47%
    14:00 +13°C° 0 mm 4 mps 751 mmHg 48%
    15:00 +13°C° 0 mm 4 mps 750 mmHg 49%
    16:00 +12°C° 0 mm 3 mps 750 mmHg 50%
    17:00 +11°C° 0 mm 3 mps 749 mmHg 56%
    18:00 +9°C° 0 mm 3 mps 749 mmHg 61%
    19:00 +8°C° 0 mm 3 mps 749 mmHg 66%
    20:00 +7°C° 0 mm 3 mps 749 mmHg 66%
    21:00 +7°C° 0 mm 3 mps 748 mmHg 66%
    22:00 +5°C° 0 mm 3 mps 748 mmHg 66%
    23:00 +5°C° 0 mm 3 mps 747 mmHg 65%

    28 February, Thursday

    Time Temperature Precipitation Wind Pressure Humidity
    00:00 +5°C° 0 mm 3 mps 747 mmHg 64%
    01:00 +5°C° 0 mm 3 mps 746 mmHg 62%
    02:00 +5°C° 0 mm 4 mps 746 mmHg 63%
    03:00 +5°C° 0 mm 4 mps 745 mmHg 63%
    04:00 +5°C° 0 mm 4 mps 744 mmHg 63%
    05:00 +5°C° 0 mm 5 mps 744 mmHg 63%
    06:00 +5°C° 0 mm 5 mps 743 mmHg 64%
    07:00 +5°C° 0 mm 5 mps 743 mmHg 64%
    08:00 +5°C° 0 mm 6 mps 743 mmHg 65%
    09:00 +6°C° 0 mm 7 mps 743 mmHg 65%
    10:00 +9°C° 0 mm 8 mps 743 mmHg 66%
    11:00 +9°C° 0 mm 8 mps 743 mmHg 64%
    12:00 +10°C° 0 mm 9 mps 742 mmHg 63%
    13:00 +10°C° 0 mm 9 mps 742 mmHg 62%
    14:00 +10°C° 0 mm 9 mps 742 mmHg 63%
    15:00 +8°C° 0 mm 9 mps 742 mmHg 64%
    16:00 +8°C° 0 mm 9 mps 742 mmHg 66%
    17:00 +7°C° 0 mm 8 mps 742 mmHg 69%
    18:00 +6°C° 0 mm 7 mps 742 mmHg 72%
    19:00 +5°C° 0 mm 6 mps 743 mmHg 76%
    20:00 +5°C° 0.1 mm 7 mps 743 mmHg 74%
    21:00 +5°C° 0.1 mm 7 mps 743 mmHg 71%
    22:00 +5°C° 0.1 mm 8 mps 743 mmHg 69%
    23:00 +4°C° 0 mm 7 mps 743 mmHg 72%

    1 March, Friday

    Time Temperature Precipitation Wind Pressure Humidity
    00:00 +3°C° 0 mm 7 mps 743 mmHg 75%
    01:00 +2°C° 0 mm 6 mps 744 mmHg 78%
    02:00 +2°C° 0 mm 7 mps 744 mmHg 77%
    03:00 +2°C° 0 mm 7 mps 744 mmHg 76%
    04:00 +1°C° 0 mm 8 mps 744 mmHg 76%
    05:00 +1°C° 0 mm 8 mps 744 mmHg 76%
    06:00 +2°C° 0 mm 7 mps 744 mmHg 76%
    07:00 +2°C° 0 mm 7 mps 744 mmHg 77%
    08:00 +2°C° 0.1 mm 7 mps 744 mmHg 77%
    09:00 +2°C° 0.1 mm 7 mps 744 mmHg 77%
    10:00 +3°C° 0.1 mm 7 mps 744 mmHg 77%
    11:00 +3°C° 0.1 mm 7 mps 744 mmHg 76%
    12:00 +4°C° 0.1 mm 7 mps 744 mmHg 75%
    13:00 +4°C° 0.1 mm 7 mps 744 mmHg 74%
    14:00 +4°C° 0.1 mm 6 mps 744 mmHg 69%
    15:00 +5°C° 0.1 mm 6 mps 744 mmHg 64%
    16:00 +5°C° 0.1 mm 6 mps 744 mmHg 59%
    17:00 +5°C° 0.1 mm 5 mps 745 mmHg 63%
    18:00 +4°C° 0.1 mm 4 mps 745 mmHg 68%
    19:00 +3°C° 0.1 mm 4 mps 746 mmHg 72%
    20:00 +1°C° 0 mm 4 mps 746 mmHg 71%
    21:00 0°C° 0 mm 4 mps 747 mmHg 70%
    22:00 -1°C° 0 mm 4 mps 748 mmHg 70%
    23:00 -1°C° 0 mm 3 mps 749 mmHg 69%
    Show more